#timestamp,LO_Frequency,Hit,StdDev 
1567285215.7,286046998.8,P
1567285235.5,286046999.0,N
1567285255.3,286046997.1,P
1567285275.2,286046998.4,N
1567285295.0,286046998.6,N
1567285295.9,286046998.6,N
1567285315.7,286046998.8,N
1567285335.6,286046999.4,N
1567285355.4,286046996.7,Y
1567285375.2,286046998.7,P
1567285395.1,286046998.5,P
1567285396.0,286046998.5,P
1567285415.8,286046998.5,Y
1567285435.6,286046999.9,P
1567285455.5,286046999.9,N
1567285475.3,286047002.7,P
1567285495.1,286047001.4,N
1567285515.9,286047001.6,N
1567285535.7,286047001.6,N
1567285555.5,286047002.2,N
1567285575.4,286047000.2,N
1567285595.2,286046999.9,N
1567285615.0,286047000.7,N
1567285615.9,286047000.7,N
1567285635.8,286047000.1,N
1567285655.6,286047002.7,N
1567285675.4,286047002.0,N
1567285695.3,286047001.3,N
1567285715.1,286047001.8,N
1567285735.8,286047001.4,N
1567285755.7,286047001.8,N
1567285775.5,286047001.5,N
1567285795.3,286047002.7,N
1567285815.2,286047004.2,Y
1567285835.0,286047000.0,P
1567285835.9,286047000.0,N
1567285855.7,286047000.8,N
1567285875.6,286046998.2,Y
1567285895.4,286046998.9,P
1567285915.2,286046999.2,N
1567285935.1,286046999.0,N
1567285936.0,286046999.0,N
1567285955.8,286046998.7,N
1567285975.6,286046998.9,N
1567285995.5,286046998.4,N
1567286015.3,286046998.7,N
1567286035.1,286046999.0,N
1567286055.9,286046998.8,N
1567286075.7,286046999.5,N
1567286095.5,286046998.5,Y
1567286115.4,286046998.3,P
1567286135.2,286047001.0,N
1567286155.0,286046998.3,N
1567286155.9,286046998.3,N
1567286175.8,286046999.0,N
1567286195.6,286046999.4,N
1567286215.4,286046999.4,N
1567286235.3,286046998.4,N
1567286255.1,286047000.4,N
1567286275.8,286046998.7,N
1567286295.7,286046999.2,N
1567286315.5,286046998.3,N
1567286335.3,286046999.6,N
1567286355.2,286046998.4,N
1567286375.9,286047000.8,N
1567286395.7,286046998.3,N
1567286415.6,286046999.3,N
1567286435.4,286046999.5,N
1567286455.2,286046998.8,N
1567286475.1,286046998.5,N
1567286476.0,286046998.5,N
1567286495.8,286046998.5,N
1567286515.6,286046998.2,N
1567286535.5,286046998.5,N
1567286555.3,286046998.9,N
1567286575.1,286046998.4,N
1567286595.9,286047001.0,N
1567286615.7,286047000.6,N
1567286635.5,286047001.1,N
1567286655.4,286046998.2,N
1567286675.2,286047001.1,N
1567286695.0,286047001.2,N
1567286695.9,286047001.2,N
1567286715.8,286047001.1,N
1567286735.6,286047002.5,N
1567286755.4,286047000.5,N
1567286775.3,286047000.5,N
1567286795.1,286047000.2,N
1567286796.0,286047000.2,N
1567286815.8,286047002.1,N
1567286835.7,286047000.0,N
1567286855.5,286046999.7,N
1567286875.3,286046999.9,N
1567286895.2,286046999.8,N
1567286915.9,286047000.3,N
1567286935.7,286047000.8,N
1567286955.6,286047000.0,N
1567286975.4,286047000.6,N
1567286995.2,286047000.2,N
1567287015.1,286047000.2,N
1567287016.0,286047000.2,N
1567287035.8,286047001.8,N
1567287055.6,286047002.8,N
1567287075.5,286047002.0,N
1567287095.3,286047002.0,N
1567287115.1,286047002.5,N
1567287135.9,286046999.9,N
1567287155.7,286047002.3,N
1567287175.5,286046999.9,N
1567287195.4,286047000.4,N
1567287215.2,286047001.0,N
1567287235.0,286046999.9,N
1567287235.9,286046999.9,N
1567287255.8,286046999.8,N
1567287275.6,286047002.7,N
1567287295.4,286047000.4,N
1567287315.3,286047000.5,N
1567287335.1,286047000.1,N
1567287336.0,286047000.1,N
1567287355.8,286047002.3,N
1567287375.7,286047002.5,N
1567287395.5,286047002.2,N
1567287415.3,286047002.8,N
1567287435.1,286047002.7,N
1567287455.9,286047002.4,N
1567287475.7,286047002.8,N
1567287495.5,286046999.8,N
1567287515.4,286046999.8,N
1567287535.2,286047000.0,N
1567287555.0,286047000.1,N
1567287555.9,286047000.1,N
1567287575.8,286047002.8,N
1567287595.6,286047000.2,N
1567287615.4,286047000.0,N
1567287635.3,286047000.2,N
1567287655.1,286047002.8,N
1567287675.8,286047000.9,N
1567287695.7,286046999.8,N
1567287715.5,286047000.1,N
1567287735.3,286047000.2,N
1567287755.2,286046999.7,N
1567287775.0,286046999.8,N
1567287775.9,286046999.8,N
1567287795.7,286046999.7,N
1567287815.6,286046999.8,N
1567287835.4,286047002.8,N
1567287855.2,286047002.8,N
1567287875.1,286047000.3,N
1567287876.0,286047000.3,N
1567287895.8,286047000.8,N
1567287915.6,286046999.9,N
1567287935.5,286046998.5,N
1567287955.3,286046998.9,N
1567287975.1,286046998.7,N
1567287995.9,286047001.0,N
1567288015.7,286046999.0,N
1567288035.5,286046998.8,N
1567288055.4,286046999.6,N
1567288075.2,286046999.0,N
1567288095.0,286046996.6,N
1567288095.9,286046996.6,N
1567288115.8,286046997.1,N
1567288135.6,286046996.8,N
1567288155.4,286046998.8,N
1567288175.3,286046998.8,N
1567288195.1,286047001.1,N
1567288215.8,286047000.6,N
1567288235.7,286047000.9,N
1567288255.5,286046998.4,N
1567288275.3,286047000.5,N
1567288295.2,286047001.0,N
1567288315.0,286046998.9,N
1567288315.9,286046998.9,N
1567288335.7,286046998.4,N
1567288355.6,286047000.7,N
1567288375.4,286047000.6,N
1567288395.2,286047000.9,N
1567288415.1,286046998.6,N
1567288416.0,286046998.6,N
1567288435.8,286046998.7,N
1567288455.6,286046999.0,N
1567288475.5,286046998.8,N
1567288495.3,286046998.8,N
1567288515.1,286046998.9,N
1567288535.9,286047000.5,N
1567288555.7,286047000.5,N
1567288575.5,286046998.5,N
1567288595.4,286046998.7,N
1567288615.2,286046999.1,N
1567288635.0,286046998.3,N
1567288635.9,286046998.3,N
1567288655.8,286047000.8,N
1567288675.6,286047000.5,N
1567288695.4,286046998.6,N
1567288715.3,286047001.2,N
1567288735.1,286046998.5,N
1567288755.8,286046998.4,N
1567288775.7,286046997.0,N
1567288795.5,286046997.2,N
